����,Lap,�g�b�v�̎���,Laptime,����,S1,S2
19 - �����E�吼�E���� - SHOP,,,,,,
10:38:59.034,2,2,55.434,47.622,32.733,22.701
10:39:54.267,3,3,55.233,47.795,32.429,22.804
10:40:49.355,4,4,55.088,47.921,32.644,22.444
10:41:44.414,5,5,55.059,47.946,32.681,22.378
10:42:38.444,6,6,54.030,48.860,31.842,22.188
10:43:33.336,7,7,54.892,48.092,32.452,22.440
10:44:27.062,8,8,53.726,49.136,31.756,21.970
10:45:21.824,9,9,54.762,48.206,32.076,22.686
10:46:15.374,10,10,53.550,49.297,31.544,22.006
10:47:09.607,11,11,54.233,48.677,31.882,22.351
10:48:03.942,12,12,54.335,48.585,32.028,22.307
10:49:00.659,13,13,56.717,46.545,32.125,
10:50:25.609,14,14,1:24.950,31.076,,23.722
10:51:24.149,15,15,58.540,45.095,,23.894
10:52:22.207,16,16,58.058,45.470,34.520,23.538
10:53:22.996,17,17,1:00.789,43.427,35.376,25.413
10:54:21.909,18,18,58.913,44.810,34.938,23.975
10:55:21.777,19,19,59.868,44.095,35.638,24.230
10:56:21.214,20,20,59.437,44.415,35.318,24.119
10:57:20.767,21,21,59.553,44.328,35.536,24.017
10:58:21.484,22,22,1:00.717,43.478,35.639,25.078
10:59:26.780,23,23,1:05.296,40.429,36.533,
11:00:49.900,24,24,1:23.120,31.760,,22.891
11:01:45.916,25,25,56.016,47.127,,22.704
11:02:41.763,26,26,55.847,47.270,32.904,22.943
11:03:38.253,27,27,56.490,46.732,33.476,23.014
11:04:34.678,28,28,56.425,46.786,33.370,23.055
11:05:33.147,29,29,58.469,45.150,34.327,24.142
11:06:29.948,30,30,56.801,46.476,33.628,23.173
11:07:27.938,31,31,57.990,45.523,34.300,23.690
11:08:24.712,32,32,56.774,46.498,33.639,23.135
11:09:21.839,33,33,57.127,46.211,33.891,23.236
11:10:18.643,34,34,56.804,46.473,33.731,23.073
11:11:16.316,35,35,57.673,45.773,34.049,23.624
11:12:15.201,36,36,58.885,44.831,33.995,24.890
11:13:15.293,37,37,1:00.092,43.931,34.219,
11:14:38.154,38,38,1:22.861,31.859,,24.369
11:15:37.226,39,39,59.072,44.689,,24.156
11:16:35.974,40,40,58.748,44.936,34.794,23.954
11:17:34.558,41,41,58.584,45.061,34.525,24.059
11:18:33.121,42,42,58.563,45.078,34.460,24.103
11:19:32.644,43,43,59.523,44.351,35.170,24.353
11:20:31.828,44,44,59.184,44.605,34.855,24.329
11:21:30.754,45,45,58.926,44.800,34.734,24.192
11:22:31.183,46,46,1:00.429,43.686,35.842,24.587
11:23:30.510,47,47,59.327,44.497,35.024,24.303
11:24:30.534,48,48,1:00.024,43.980,35.565,24.459
11:25:31.244,49,49,1:00.710,43.483,35.512,
11:26:56.131,50,50,1:24.887,31.099,,24.626
11:27:55.597,51,51,59.466,44.393,,24.300
11:28:54.838,52,52,59.241,44.562,35.158,24.083
11:29:53.540,53,53,58.702,44.971,34.884,23.818
11:30:52.650,54,54,59.110,44.660,34.568,24.542
11:31:52.398,55,55,59.748,44.184,34.604,25.144
11:32:50.798,56,56,58.400,45.203,34.645,23.755
11:33:49.206,57,57,58.408,45.197,34.893,23.515
11:34:48.763,58,58,59.557,44.325,34.428,25.129
11:35:46.828,59,59,58.065,45.464,34.340,23.725
11:36:45.433,60,60,58.605,45.045,34.822,23.783
11:37:44.686,61,61,59.253,44.553,34.639,24.614
5 - �쐼�E�Җ{ - SHOP,,,,,,
10:38:59.639,2,2,55.700,47.395,32.796,22.904
10:39:55.271,3,3,55.632,47.453,32.871,22.761
10:40:50.830,4,4,55.559,47.515,32.960,22.599
10:41:45.917,5,5,55.087,47.922,32.643,22.444
10:42:41.094,6,6,55.177,47.844,32.780,22.397
10:43:35.708,7,7,54.614,48.337,32.153,22.461
10:44:29.674,8,8,53.966,48.917,31.906,22.060
10:45:24.010,9,9,54.336,48.584,32.205,22.131
10:46:18.649,10,10,54.639,48.315,32.409,22.230
10:47:13.078,11,11,54.429,48.501,32.152,22.277
10:48:09.454,12,12,56.376,46.826,32.808,
10:49:27.722,13,13,1:18.268,33.729,,22.589
10:50:22.768,14,14,55.046,47.958,,22.452
10:51:18.292,15,15,55.524,47.545,32.962,22.562
10:52:13.786,16,16,55.494,47.571,32.811,22.683
10:53:09.754,17,17,55.968,47.168,33.182,22.786
10:54:06.938,18,18,57.184,46.165,33.705,23.479
10:55:12.741,19,19,1:05.803,40.118,42.335,23.468
10:56:10.573,20,20,57.832,45.647,34.426,23.406
10:57:08.563,21,21,57.990,45.523,34.179,23.811
10:58:05.565,22,22,57.002,46.312,33.822,23.180
10:59:03.923,23,23,58.358,45.236,34.259,24.099
11:00:03.205,24,24,59.282,44.531,35.604,23.678
11:01:04.456,25,25,1:01.251,43.099,36.691,24.560
11:02:04.702,26,26,1:00.246,43.818,35.862,24.384
11:03:06.325,27,27,1:01.623,42.839,36.497,
11:04:32.268,28,28,1:25.943,30.717,,25.038
11:05:33.029,29,29,1:00.761,43.447,,24.729
11:06:31.495,30,30,58.466,45.152,34.708,23.758
11:07:30.573,31,31,59.078,44.685,34.876,24.202
11:08:28.994,32,32,58.421,45.187,34.683,23.738
11:09:28.155,33,33,59.161,44.622,35.260,23.901
11:10:26.432,34,34,58.277,45.299,34.533,23.744
11:11:25.241,35,35,58.809,44.889,34.549,24.260
11:12:23.944,36,36,58.703,44.970,34.802,23.901
11:13:22.808,37,37,58.864,44.847,34.841,
11:14:43.951,38,38,1:21.143,32.534,,24.924
11:15:44.363,39,39,1:00.412,43.698,,24.410
11:16:53.321,40,40,1:08.958,38.282,43.874,25.084
11:17:55.163,41,41,1:01.842,42.687,36.651,25.191
11:18:55.602,42,42,1:00.439,43.678,35.814,24.625
11:19:56.527,43,43,1:00.925,43.330,35.930,24.995
11:20:59.606,44,44,1:03.079,41.850,36.908,26.171
11:22:00.430,45,45,1:00.824,43.402,36.076,24.748
11:23:01.046,46,46,1:00.616,43.551,35.931,24.685
11:24:01.743,47,47,1:00.697,43.493,35.892,24.805
11:25:03.869,48,48,1:02.126,42.492,36.793,25.333
11:26:07.890,49,49,1:04.021,41.235,37.687,26.334
11:27:10.305,50,50,1:02.415,42.296,36.472,
11:28:36.655,51,51,1:26.350,30.572,,24.384
11:29:36.319,52,52,59.664,44.246,,24.162
11:30:36.219,53,53,59.900,44.071,35.409,24.491
11:31:36.009,54,54,59.790,44.153,35.642,24.148
11:32:36.381,55,55,1:00.372,43.727,36.205,24.167
11:33:36.575,56,56,1:00.194,43.856,35.923,24.271
11:34:37.177,57,57,1:00.602,43.561,35.728,24.874
11:35:36.014,58,58,58.837,44.868,34.720,24.117
11:36:35.346,59,59,59.332,44.493,35.125,24.207
11:37:34.589,60,60,59.243,44.560,34.981,24.262
11:38:35.295,61,61,1:00.706,43.486,35.827,24.879
10 - ����E�J�� - SHOP,,,,,,
10:39:05.095,2,2,58.009,45.508,34.337,23.672
10:40:02.672,3,3,57.577,45.850,34.058,23.519
10:41:00.215,4,4,57.543,45.877,33.870,23.673
10:41:57.766,5,5,57.551,45.870,34.204,23.347
10:42:55.778,6,6,58.012,45.506,34.300,23.712
10:43:52.528,7,7,56.750,46.518,33.585,23.165
10:44:49.608,8,8,57.080,46.249,33.655,23.425
10:45:46.165,9,9,56.557,46.676,33.584,22.973
10:46:42.345,10,10,56.180,46.990,33.311,22.869
10:47:38.151,11,11,55.806,47.305,32.873,22.933
10:48:34.291,12,12,56.140,47.023,33.048,23.092
10:49:31.665,13,13,57.374,46.012,33.852,23.522
10:50:28.338,14,14,56.673,46.581,33.511,23.162
10:51:28.494,15,15,1:00.156,43.884,34.082,
10:52:57.606,16,16,1:29.112,29.624,,25.699
10:53:56.669,17,17,59.063,44.696,,24.072
10:54:55.070,18,18,58.401,45.203,34.432,23.969
10:55:53.318,19,19,58.248,45.321,34.337,23.911
10:56:52.709,20,20,59.391,44.449,34.895,24.496
10:57:50.798,21,21,58.089,45.445,34.350,23.739
10:58:50.349,22,22,59.551,44.330,35.508,24.043
10:59:49.059,23,23,58.710,44.965,34.794,23.916
11:00:47.936,24,24,58.877,44.837,34.530,24.347
11:01:48.362,25,25,1:00.426,43.688,35.606,24.820
11:02:50.198,26,26,1:01.836,42.692,35.312,
11:04:18.250,27,27,1:28.052,29.981,,24.252
11:05:16.482,28,28,58.232,45.334,,23.707
11:06:19.880,29,29,1:03.398,41.640,39.071,24.327
11:07:20.419,30,30,1:00.539,43.606,36.176,24.363
11:08:20.312,31,31,59.893,44.077,35.543,24.350
11:09:19.740,32,32,59.428,44.421,35.214,24.214
11:10:18.146,33,33,58.406,45.199,34.538,23.868
11:11:19.192,34,35,1:01.046,43.244,36.173,24.873
11:12:18.404,35,36,59.212,44.584,34.991,24.221
11:13:18.108,36,37,59.704,44.216,35.223,24.481
11:14:17.764,37,37,59.656,44.252,35.136,24.520
11:15:17.252,38,38,59.488,44.377,34.778,
11:16:42.659,39,40,1:25.407,30.909,,24.767
11:17:42.470,40,41,59.811,44.137,,24.309
11:18:43.827,41,42,1:01.357,43.025,36.668,24.689
11:19:43.849,42,43,1:00.022,43.982,35.299,24.723
11:20:43.763,43,44,59.914,44.061,35.477,24.437
11:21:44.038,44,45,1:00.275,43.797,35.510,24.765
11:22:44.275,45,46,1:00.237,43.825,35.711,24.526
11:23:44.415,46,47,1:00.140,43.896,35.191,24.949
11:24:43.819,47,48,59.404,44.439,34.842,24.562
11:25:43.861,48,49,1:00.042,43.967,35.720,24.322
11:26:45.387,49,49,1:01.526,42.907,35.518,
11:28:06.730,50,51,1:21.343,32.454,,24.778
11:29:07.132,51,52,1:00.402,43.705,,24.554
11:30:06.516,52,53,59.384,44.454,35.121,24.263
11:31:06.553,53,54,1:00.037,43.971,35.589,24.448
11:32:06.128,54,55,59.575,44.312,35.213,24.362
11:33:07.663,55,56,1:01.535,42.900,36.328,25.207
11:34:07.512,56,57,59.849,44.109,35.592,24.257
11:35:08.179,57,58,1:00.667,43.514,36.402,24.265
11:36:07.173,58,59,58.994,44.748,35.085,23.909
11:37:06.285,59,60,59.112,44.659,34.974,24.138
11:38:06.045,60,61,59.760,44.175,35.348,24.412
8 - ����E��c - SHOP,,,,,,
10:39:07.047,2,2,58.982,44.757,35.012,23.970
10:40:04.637,3,3,57.590,45.839,33.848,23.742
10:41:02.010,4,4,57.373,46.013,33.588,23.785
10:41:58.803,5,5,56.793,46.482,33.434,23.359
10:42:56.456,6,6,57.653,45.789,33.450,24.203
10:43:53.311,7,7,56.855,46.432,33.082,23.773
10:44:49.769,8,8,56.458,46.758,33.122,23.336
10:45:45.372,9,9,55.603,47.477,32.688,22.915
10:46:41.766,10,10,56.394,46.811,33.224,23.170
10:47:37.304,11,11,55.538,47.533,32.550,22.988
10:48:35.186,12,12,57.882,45.608,33.104,
10:49:58.226,13,13,1:23.040,31.790,,23.909
10:50:56.169,14,14,57.943,45.560,,23.573
10:51:55.339,15,15,59.170,44.615,34.653,24.517
10:52:55.218,16,16,59.879,44.087,36.154,23.725
10:53:53.712,17,17,58.494,45.131,34.417,24.077
10:54:52.421,18,18,58.709,44.966,34.611,24.098
10:55:51.074,19,19,58.653,45.008,34.749,23.904
10:56:49.607,20,20,58.533,45.101,34.809,23.724
10:57:47.652,21,21,58.045,45.480,34.313,23.732
10:58:46.183,22,22,58.531,45.102,35.025,23.506
10:59:45.277,23,23,59.094,44.673,34.593,24.501
11:00:45.369,24,24,1:00.092,43.931,34.749,
11:02:06.672,25,26,1:21.303,32.470,,24.894
11:03:06.230,26,26,59.558,44.325,,24.460
11:04:06.146,27,27,59.916,44.060,35.152,24.764
11:05:05.956,28,28,59.810,44.138,35.413,24.397
11:06:05.846,29,29,59.890,44.079,35.332,24.558
11:07:06.201,30,30,1:00.355,43.739,35.475,24.880
11:08:06.553,31,31,1:00.352,43.741,35.581,24.771
11:09:07.028,32,32,1:00.475,43.652,35.633,24.842
11:10:08.475,33,33,1:01.447,42.962,36.419,25.028
11:11:09.103,34,34,1:00.628,43.542,35.320,25.308
11:12:09.728,35,35,1:00.625,43.544,35.575,25.050
11:13:10.553,36,36,1:00.825,43.401,35.547,
11:14:36.695,37,37,1:26.142,30.646,,26.197
11:15:38.436,38,39,1:01.741,42.757,,25.005
11:16:39.993,39,40,1:01.557,42.885,36.742,24.815
11:17:41.141,40,41,1:01.148,43.172,36.060,25.088
11:18:43.570,41,42,1:02.429,42.286,37.591,24.838
11:19:45.082,42,43,1:01.512,42.917,36.559,24.953
11:20:45.848,43,44,1:00.766,43.443,35.838,24.928
11:21:47.244,44,45,1:01.396,42.998,36.343,25.053
11:22:47.744,45,46,1:00.500,43.634,35.994,24.506
11:23:49.685,46,47,1:01.941,42.619,36.487,25.454
11:24:51.143,47,48,1:01.458,42.954,36.812,
11:26:14.230,48,49,1:23.087,31.772,,25.694
11:27:16.183,49,50,1:01.953,42.611,,25.376
11:28:18.028,50,51,1:01.845,42.685,36.311,25.534
11:29:19.555,51,52,1:01.527,42.906,36.227,25.300
11:30:21.431,52,53,1:01.876,42.664,36.654,25.222
11:31:23.039,53,54,1:01.608,42.850,36.446,25.162
11:32:24.417,54,55,1:01.378,43.010,36.175,25.203
11:33:25.966,55,56,1:01.549,42.891,36.195,25.354
11:34:27.121,56,57,1:01.155,43.167,35.898,25.257
11:35:27.971,57,58,1:00.850,43.383,35.855,24.995
11:36:28.566,58,59,1:00.595,43.566,35.553,25.042
11:37:29.496,59,60,1:00.930,43.326,35.770,25.160
11:38:30.900,60,61,1:01.404,42.992,35.996,25.408
15 - �r�؁E�쑽 - SHOP,,,,,,
10:39:00.473,2,2,55.793,47.316,32.992,22.801
10:39:55.620,3,3,55.147,47.870,32.482,22.665
10:40:51.302,4,4,55.682,47.410,32.957,22.725
10:41:46.191,5,5,54.889,48.095,32.589,22.300
10:42:41.748,6,6,55.557,47.517,32.736,22.821
10:43:36.253,7,7,54.505,48.434,32.128,22.377
10:44:30.922,8,8,54.669,48.288,32.118,22.551
10:45:25.131,9,9,54.209,48.698,31.920,22.289
10:46:20.656,10,10,55.525,47.544,32.329,23.196
10:47:14.656,11,11,54.000,48.887,31.949,22.051
10:48:10.454,12,12,55.798,47.311,32.280,
10:49:32.216,13,13,1:21.762,32.287,,23.126
10:50:28.433,14,14,56.217,46.959,,22.702
10:51:24.273,15,15,55.840,47.276,32.887,22.953
10:52:22.376,16,16,58.103,45.434,34.779,23.324
10:53:22.130,17,17,59.754,44.179,34.450,25.304
10:54:20.081,18,18,57.951,45.554,34.378,23.573
10:55:17.945,19,19,57.864,45.622,34.374,23.490
10:56:16.926,20,20,58.981,44.758,34.813,24.168
10:57:16.039,21,21,59.113,44.658,35.022,24.091
10:58:14.785,22,22,58.746,44.937,34.863,23.883
10:59:13.369,23,23,58.584,45.061,34.591,23.993
11:00:14.832,24,24,1:01.463,42.951,34.657,
11:02:16.104,25,26,2:01.272,21.768,,23.795
11:03:16.433,26,27,1:00.329,43.758,,24.569
11:04:39.031,27,28,1:22.598,31.961,58.415,24.183
11:05:38.438,28,29,59.407,44.437,35.353,24.054
11:06:39.132,29,30,1:00.694,43.495,36.081,24.613
11:07:39.235,30,31,1:00.103,43.923,35.967,24.136
11:08:39.044,31,32,59.809,44.139,35.807,24.002
11:09:39.516,32,33,1:00.472,43.655,35.398,25.074
11:10:38.865,33,34,59.349,44.481,35.239,24.110
11:11:38.704,34,35,59.839,44.116,35.404,24.435
11:12:40.088,35,36,1:01.384,43.006,35.195,
11:14:08.761,36,37,1:28.673,29.771,,24.915
11:15:09.411,37,38,1:00.650,43.526,,24.893
11:16:10.005,38,39,1:00.594,43.567,35.768,24.826
11:17:10.314,39,40,1:00.309,43.773,35.599,24.710
11:18:10.251,40,41,59.937,44.044,35.493,24.444
11:19:10.574,41,42,1:00.323,43.762,35.791,24.532
11:20:11.382,42,43,1:00.808,43.413,35.343,25.465
11:21:12.299,43,44,1:00.917,43.336,36.069,24.848
11:22:12.722,44,45,1:00.423,43.690,35.789,24.634
11:23:12.378,45,46,59.656,44.252,35.364,24.292
11:24:14.325,46,47,1:01.947,42.615,35.181,
11:25:41.208,47,49,1:26.883,30.384,,25.361
11:26:42.885,48,49,1:01.677,42.802,,25.102
11:27:43.858,49,50,1:00.973,43.296,35.971,25.002
11:28:44.744,50,51,1:00.886,43.358,35.989,24.897
11:29:45.408,51,52,1:00.664,43.516,35.980,24.684
11:30:45.904,52,53,1:00.496,43.637,35.826,24.670
11:31:46.816,53,54,1:00.912,43.339,35.838,25.074
11:32:46.579,54,55,59.763,44.172,35.396,24.367
11:33:53.264,55,57,1:06.685,39.587,41.459,25.226
11:34:55.658,56,58,1:02.394,42.310,36.358,26.036
11:35:56.897,57,59,1:01.239,43.108,35.828,25.411
11:36:57.391,58,60,1:00.494,43.639,35.773,24.721
11:37:57.964,59,61,1:00.573,43.582,35.843,24.730
9 - �R�c�E�⍪ - SHOP,,,,,,
10:39:06.168,2,2,57.411,45.982,33.931,23.480
10:40:03.387,3,3,57.219,46.136,34.010,23.209
10:41:00.327,4,4,56.940,46.362,33.291,23.649
10:41:56.231,5,5,55.904,47.222,33.268,22.636
10:42:51.944,6,6,55.713,47.384,32.506,23.207
10:43:46.458,7,7,54.514,48.426,32.196,22.318
10:44:39.945,8,8,53.487,49.356,31.555,21.932
10:45:34.006,9,9,54.061,48.832,32.122,21.939
10:46:27.802,10,10,53.796,49.072,31.742,22.054
10:47:23.803,11,11,56.001,47.140,33.199,22.802
10:48:19.236,12,12,55.433,47.623,32.428,23.005
10:49:14.296,13,13,55.060,47.946,32.394,22.666
10:50:10.343,14,14,56.047,47.101,33.180,
10:51:43.874,15,15,1:33.531,28.225,,25.113
10:52:44.316,16,16,1:00.442,43.676,,24.472
10:53:43.476,17,17,59.160,44.623,35.140,24.020
10:54:43.990,18,18,1:00.514,43.624,36.049,24.465
10:55:44.698,19,19,1:00.708,43.485,36.289,24.419
10:56:44.812,20,20,1:00.114,43.915,35.535,24.579
10:57:46.969,21,21,1:02.157,42.471,36.649,25.508
10:58:51.150,22,22,1:04.181,41.132,37.230,
11:00:20.050,23,24,1:28.900,29.695,,24.151
11:01:19.837,24,25,59.787,44.155,,24.799
11:02:18.034,25,26,58.197,45.361,34.487,23.710
11:03:18.782,26,27,1:00.748,43.456,34.314,26.434
11:04:17.684,27,27,58.902,44.818,34.731,24.171
11:05:16.066,28,28,58.382,45.217,34.716,23.666
11:06:14.894,29,29,58.828,44.875,34.703,24.125
11:07:13.171,30,30,58.277,45.299,34.448,23.829
11:08:11.361,31,31,58.190,45.367,34.422,23.768
11:09:10.274,32,32,58.913,44.810,34.552,24.361
11:10:09.742,33,33,59.468,44.392,35.159,24.309
11:11:09.989,34,34,1:00.247,43.818,35.121,25.126
11:12:10.043,35,35,1:00.054,43.958,35.414,24.640
11:13:10.521,36,36,1:00.478,43.650,36.033,24.445
11:14:11.326,37,37,1:00.805,43.416,35.246,
11:15:42.372,38,39,1:31.046,28.995,,25.954
11:16:44.834,39,40,1:02.462,42.264,,25.393
11:17:47.111,40,41,1:02.277,42.389,36.902,25.375
11:18:50.673,41,42,1:03.562,41.532,38.077,25.485
11:19:53.772,42,43,1:03.099,41.837,37.678,25.421
11:20:57.126,43,44,1:03.354,41.669,36.960,
11:22:25.123,44,45,1:27.997,30.000,,24.886
11:23:26.237,45,46,1:01.114,43.196,,24.905
11:24:25.884,46,47,59.647,44.258,35.293,24.354
11:25:25.658,47,48,59.774,44.164,35.550,24.224
11:26:25.771,48,49,1:00.113,43.915,35.798,24.315
11:27:25.557,49,50,59.786,44.155,35.150,24.636
11:28:26.091,50,51,1:00.534,43.610,35.931,24.603
11:29:25.600,51,52,59.509,44.361,35.203,24.306
11:30:27.892,52,53,1:02.292,42.379,36.471,25.821
11:31:27.838,53,54,59.946,44.038,35.344,24.602
11:32:27.310,54,55,59.472,44.389,35.231,24.241
11:33:26.622,55,56,59.312,44.508,35.126,24.186
11:35:21.671,56,58,1:55.049,22.946,1:30.132,24.917
11:36:21.774,57,59,1:00.103,43.923,35.832,24.271
11:37:22.580,58,60,1:00.806,43.415,35.434,25.372
11:38:22.847,59,61,1:00.267,43.803,35.705,24.562
12 - ��1�N�E�~1�N - SHOP,,,,,,
10:39:05.454,2,2,57.212,46.142,33.456,23.756
10:40:03.213,3,3,57.759,45.705,33.982,23.777
10:41:00.442,4,4,57.229,46.128,33.887,23.342
10:41:55.980,5,5,55.538,47.533,32.956,22.582
10:42:51.667,6,6,55.687,47.406,32.545,23.142
10:43:47.257,7,7,55.590,47.488,33.235,22.355
10:44:41.912,8,8,54.655,48.301,32.242,22.413
10:45:37.187,9,9,55.275,47.759,32.832,22.443
10:46:31.689,10,10,54.502,48.436,32.354,22.148
10:47:26.683,11,11,54.994,48.003,32.181,22.813
10:48:28.725,12,12,1:02.042,42.550,33.094,
10:49:56.145,13,13,1:27.420,30.198,,23.578
10:50:54.618,14,14,58.473,45.147,,24.156
10:51:53.958,15,15,59.340,44.487,35.102,24.238
10:52:54.008,16,16,1:00.050,43.961,35.974,24.076
10:53:53.394,17,17,59.386,44.453,35.358,24.028
10:54:52.055,18,18,58.661,45.002,34.774,23.887
10:55:50.661,19,19,58.606,45.045,34.852,23.754
10:56:50.340,20,20,59.679,44.235,35.259,24.420
10:57:50.177,21,21,59.837,44.118,35.621,24.216
10:58:53.739,22,22,1:03.562,41.532,35.634,
11:01:53.178,23,25,2:59.439,14.712,,24.307
11:02:52.912,24,26,59.734,44.194,,24.228
11:03:52.354,25,27,59.442,44.411,35.350,24.092
11:04:52.155,26,28,59.801,44.144,35.476,24.325
11:05:52.686,27,29,1:00.531,43.612,35.898,24.633
11:06:52.848,28,30,1:00.162,43.880,35.267,24.895
11:07:53.380,29,31,1:00.532,43.611,35.604,24.928
11:08:53.538,30,32,1:00.158,43.882,35.691,24.467
11:09:54.257,31,33,1:00.719,43.477,36.116,24.603
11:10:54.256,32,34,59.999,43.999,35.629,24.370
11:11:55.106,33,35,1:00.850,43.383,36.690,24.160
11:12:56.892,34,36,1:01.786,42.726,35.202,
11:14:30.068,35,37,1:33.176,28.332,,24.887
11:15:32.419,36,38,1:02.351,42.339,,25.829
11:16:33.446,37,39,1:01.027,43.258,36.267,24.760
11:17:35.159,38,41,1:01.713,42.777,36.267,25.446
11:18:35.457,39,42,1:00.298,43.781,35.796,24.502
11:19:36.247,40,43,1:00.790,43.426,36.054,24.736
11:20:36.811,41,44,1:00.564,43.588,35.938,24.626
11:21:43.995,42,45,1:07.184,39.293,42.077,25.107
11:22:44.986,43,46,1:00.991,43.283,36.367,24.624
11:23:46.753,44,47,1:01.767,42.739,36.494,25.273
11:24:48.106,45,48,1:01.353,43.028,36.535,24.818
11:25:49.783,46,49,1:01.677,42.802,36.755,24.922
11:26:52.038,47,49,1:02.255,42.404,36.978,25.277
11:27:54.924,48,50,1:02.886,41.979,36.410,
11:29:23.655,49,52,1:28.731,29.751,,24.598
11:30:23.988,50,53,1:00.333,43.755,,24.727
11:31:24.612,51,54,1:00.624,43.545,35.827,24.797
11:32:25.986,52,55,1:01.374,43.013,35.733,25.641
11:33:25.965,53,56,59.979,44.013,35.336,24.643
11:34:25.997,54,57,1:00.032,43.975,35.583,24.449
11:35:26.362,55,58,1:00.365,43.732,35.727,24.638
11:36:25.947,56,59,59.585,44.304,35.202,24.383
11:37:27.443,57,60,1:01.496,42.928,36.409,25.087
11:38:28.005,58,61,1:00.562,43.590,35.743,24.819
11 - ��ҁE��ҁE�ؑ� - SHOP,,,,,,
10:39:05.840,2,2,57.738,45.722,34.320,23.418
10:40:03.592,3,3,57.752,45.711,34.901,22.851
10:41:01.108,4,4,57.516,45.898,34.293,23.223
10:41:58.298,5,5,57.190,46.160,34.064,23.126
10:42:55.588,6,6,57.290,46.079,34.435,22.855
10:43:52.175,7,7,56.587,46.652,33.288,23.299
10:44:48.424,8,8,56.249,46.932,33.360,22.889
10:45:45.436,9,9,57.012,46.304,33.683,23.329
10:46:42.918,10,10,57.482,45.925,34.537,22.945
10:47:39.569,11,11,56.651,46.599,33.507,23.144
10:48:37.158,12,12,57.589,45.840,33.814,23.775
10:49:34.986,13,13,57.828,45.651,34.212,23.616
10:50:34.461,14,14,59.475,44.386,34.397,
10:52:18.220,15,16,1:43.759,25.442,,26.086
10:53:23.155,16,17,1:04.935,40.654,,26.616
10:54:29.806,17,18,1:06.651,39.608,39.534,27.117
10:55:37.942,18,19,1:08.136,38.744,40.262,27.874
10:56:46.541,19,20,1:08.599,38.483,40.474,28.125
10:57:55.636,20,21,1:09.095,38.207,40.648,28.447
10:59:04.935,21,23,1:09.299,38.094,40.920,28.379
11:00:14.026,22,24,1:09.091,38.209,40.628,28.463
11:01:24.754,23,25,1:10.728,37.324,40.972,29.756
11:02:34.844,24,26,1:10.090,37.664,39.873,
11:04:15.249,25,27,1:40.405,26.292,,27.544
11:05:20.258,26,28,1:05.009,40.608,,25.719
11:06:24.130,27,29,1:03.872,41.331,37.896,25.976
11:07:26.175,28,30,1:02.045,42.548,36.937,25.108
11:08:27.755,29,32,1:01.580,42.869,36.364,25.216
11:09:28.507,30,33,1:00.752,43.453,36.038,24.714
11:10:29.129,31,34,1:00.622,43.547,35.997,24.625
11:11:29.121,32,35,59.992,44.004,35.752,24.240
11:12:29.761,33,36,1:00.640,43.534,36.048,24.592
11:13:30.308,34,37,1:00.547,43.601,35.926,24.621
11:14:31.485,35,37,1:01.177,43.152,36.116,25.061
11:15:32.762,36,38,1:01.277,43.081,35.490,25.787
11:16:34.116,37,39,1:01.354,43.027,36.466,24.888
11:17:37.046,38,41,1:02.930,41.949,35.960,
11:19:15.306,39,42,1:38.260,26.866,,26.438
11:20:19.913,40,43,1:04.607,40.861,,26.459
11:21:25.563,41,44,1:05.650,40.211,39.277,26.373
11:22:28.659,42,45,1:03.096,41.839,37.424,25.672
11:23:31.627,43,47,1:02.968,41.924,37.132,25.836
11:24:34.937,44,48,1:03.310,41.698,37.649,25.661
11:25:37.761,45,49,1:02.824,42.020,37.058,25.766
11:26:39.737,46,49,1:01.976,42.595,36.719,25.257
11:27:45.714,47,50,1:05.977,40.012,37.127,
11:29:14.525,48,52,1:28.811,29.725,,24.832
11:30:14.691,49,53,1:00.166,43.877,,24.722
11:31:14.054,50,54,59.363,44.470,35.337,24.026
11:32:13.267,51,55,59.213,44.583,34.997,24.216
11:33:12.520,52,56,59.253,44.553,35.094,24.159
11:34:12.664,53,57,1:00.144,43.893,35.635,24.509
11:35:12.164,54,58,59.500,44.368,35.168,24.332
11:36:11.409,55,59,59.245,44.559,35.358,23.887
11:37:10.164,56,60,58.755,44.930,34.755,24.000
11:38:09.520,57,61,59.356,44.475,35.052,24.304
6 - ���{�E�k�c - SHOP,,,,,,
10:39:13.538,2,2,1:01.813,42.708,36.198,25.615
10:40:15.141,3,3,1:01.603,42.853,36.393,25.210
10:41:15.706,4,4,1:00.565,43.588,35.609,24.956
10:42:16.853,5,5,1:01.147,43.173,36.204,24.943
10:43:17.823,6,6,1:00.970,43.298,35.950,25.020
10:44:19.392,7,7,1:01.569,42.877,36.757,24.812
10:45:18.831,8,8,59.439,44.413,35.142,24.297
10:46:20.733,9,10,1:01.902,42.646,36.319,25.583
10:47:20.933,10,11,1:00.200,43.852,35.956,24.244
10:48:25.394,11,12,1:04.461,40.953,35.118,
10:49:53.969,12,13,1:28.575,29.804,,24.368
10:50:53.301,13,14,59.332,44.493,,24.394
10:51:53.674,14,15,1:00.373,43.726,35.910,24.463
10:52:53.655,15,16,59.981,44.012,35.733,24.248
10:53:53.226,16,17,59.571,44.315,35.297,24.274
10:54:53.484,17,18,1:00.258,43.810,35.692,24.566
10:55:52.627,18,19,59.143,44.636,34.926,24.217
10:56:52.668,19,20,1:00.041,43.968,35.447,24.594
10:57:51.965,20,21,59.297,44.520,34.997,24.300
10:58:52.160,21,22,1:00.195,43.855,35.803,24.392
10:59:52.872,22,23,1:00.712,43.482,35.842,24.870
11:00:53.430,23,24,1:00.558,43.593,35.921,24.637
11:01:54.096,24,25,1:00.666,43.515,36.086,24.580
11:02:55.307,25,26,1:01.211,43.128,35.580,
11:04:30.146,26,27,1:34.839,27.835,,27.827
11:05:35.311,27,29,1:05.165,40.511,,26.564
11:06:40.392,28,30,1:05.081,40.563,38.886,26.195
11:07:43.720,29,31,1:03.328,41.686,37.466,25.862
11:08:47.261,30,32,1:03.541,41.546,37.254,26.287
11:09:50.036,31,33,1:02.775,42.053,37.379,25.396
11:10:52.875,32,34,1:02.839,42.010,36.972,25.867
11:11:56.527,33,35,1:03.652,41.474,37.522,26.130